SCP
0 0 0 0 0 0 0 0 0 0 0 0 0 0 0 0 0 0 0 0 0 0 0 0 0 0 0
0 0 0 0 0 0 0 0 0 0 0 0 0 0 0 0 0 0 0 0 0 0 0 0 0 0 0
0 0 0 0 0 0 0 0 0 0 0 0 0 0 0 0 0 0 0 0 0 0 0 0 0 0 0
0 0 0 0 0 0 0 0 0 0 0 0 0 0 0 0 0 0 0 0 0 0 0 0 0 0 0
0 0 0 0 0 0 0 0 0 0 0 0 0 0 0 0 0 0 0 0 0 0 0 0 0 0 0
0 0 0 0 0 0 0 0 0 0 0 0 0 0 0 0 0 0 0 0 0 0 0 0 0 0 0
0 0 0 0 0 0 0 0 0 0 0 0 0 0 0 0 0 0 0 0 0 0 0 0 0 0 0
0 0 0 0 0 0 0 0 0 0 0 0 0 0 0 0 0 0 0 0 0 0 0 0 0 0 0
0 0 0 0 0 0 0 0 0 0 0 0 0 0 0 0 0 0 0 0 0 0 0 0 0 0 0
0 0 0 0 0 0 0 0 0 0 0 0 0 0 0 0 0 0 0 0 0 0 0 0 0 0 0
0 0 0 0 0 0 0 0 0 0 0 0 0 0 0 0 0 0 0 0 0 0 0 0 0 0 0
0 0 0 0 0 0 0 0 0 0 0 0 0 0 0 0 0 0 0 0 0 0 0 0 0 0 0
0 0 0 0 0 0 0 0 0 0 0 0 0 0 0 0 0 0 0 0 0 0 0 0 0 0 0
0 0 0 0 0 0 0 0 0 0 0 0 0 0 0 0 0 0 0 0 0 0 0 0 0 0 0
0 0 0 0 0 0 0 0 0 0 0 0 0 0 0 0 0 0 0 0 0 0 0 0 0 0 0
0 0 0 0 0 0 0 0 0 0 0 0 0 0 0 0 0 0 0 0 0 0 0 0 0 0 0
Wind_Speed_500mb
10 10 9 8 7 5 4 8 12 13 12 14 13 17 17 19 18 12 12 13 15 18 21 22 20 18 15
11 13 14 14 13 10 8 9 10 13 15 11 23 21 17 13 16 20 21 19 21 22 22 23 24 22 19
15 15 14 17 19 18 16 14 13 13 15 14 15 20 23 24 22 18 19 21 24 27 28 28 29 28 26
18 21 21 17 19 21 22 23 19 18 16 15 26 26 23 27 27 26 25 25 31 27 29 21 31 29 28
27 24 25 25 23 21 21 21 20 20 18 24 27 32 28 26 27 26 27 24 25 25 20 24 35 39 37
27 29 30 27 26 25 24 26 30 31 29 28 27 25 26 26 28 27 28 30 32 33 35 37 39 43 43
28 28 29 34 31 30 29 29 29 31 33 30 28 26 29 29 29 30 33 31 34 37 39 41 43 42 42
30 32 32 31 34 36 32 35 34 34 32 35 32 33 33 31 31 32 34 35 39 41 44 42 42 43 45
29 32 34 34 34 36 39 34 33 39 39 36 38 37 37 34 34 36 36 40 43 42 46 45 46 47 46
28 30 30 34 35 40 39 38 36 33 38 40 38 38 38 39 37 40 40 42 44 49 49 47 49 51 53
35 34 34 36 34 36 36 35 35 38 37 36 37 39 34 34 38 43 44 45 45 49 52 52 54 56 57
37 36 35 33 34 34 29 31 32 34 36 37 37 39 41 41 41 43 45 46 47 51 57 62 61 57 62
34 20 23 25 18 19 25 33 35 33 31 33 34 32 31 34 37 37 38 43 45 44 52 57 60 56 63
28 25 21 16 17 21 23 27 29 27 29 30 32 30 28 29 31 34 37 41 46 43 46 50 46 51 59
11 25 19 18 21 23 24 19 20 24 25 24 26 29 31 32 32 33 30 26 37 39 39 39 32 21 56
3 11 11 15 19 19 19 18 22 27 22 20 22 25 27 28 28 29 30 35 36 38 38 39 43 48 50
Wind_Direction_500mb
258 260 268 275 285 309 305 254 240 237 243 227 244 264 283 279 281 273 270 260 263 270 276 283 292 296 293
253 253 265 268 266 267 268 264 267 252 258 264 245 255 261 286 268 276 275 266 272 273 276 282 285 283 284
258 271 272 270 267 264 262 259 262 261 263 272 281 261 262 279 288 282 282 286 279 279 283 285 283 284 283
251 259 272 276 262 261 261 258 255 257 254 237 261 276 281 282 280 284 286 287 288 293 297 293 300 292 276
249 254 257 266 272 272 272 254 261 269 260 260 257 265 272 275 275 277 280 286 289 290 279 277 285 295 291
255 249 258 261 265 261 265 257 249 239 248 254 268 273 278 282 283 281 285 285 288 288 284 276 269 273 278
253 259 257 255 261 268 258 258 255 253 257 259 263 262 269 276 279 276 280 280 279 283 277 276 278 280 280
250 259 267 276 260 262 263 248 248 257 253 252 259 262 266 273 276 279 279 279 274 275 281 286 286 283 285
255 254 259 265 257 265 268 271 251 245 254 253 249 253 258 265 260 261 260 273 283 280 279 284 288 291 289
263 258 255 263 266 267 270 272 265 260 253 255 256 263 257 261 266 269 274 277 278 280 291 286 285 286 290
268 269 260 250 250 259 267 266 270 264 262 262 257 257 267 272 271 274 278 276 275 277 279 282 286 285 286
267 268 264 258 254 252 248 265 270 267 265 266 265 260 254 258 264 272 278 280 280 281 283 282 279 277 282
267 267 279 273 262 264 235 246 250 254 256 261 273 275 273 267 272 277 281 284 287 291 296 295 294 294 301
257 227 208 209 222 227 232 247 257 260 261 259 259 270 276 277 280 281 286 293 296 299 301 306 296 301 304
259 215 207 216 226 237 245 246 257 264 260 265 264 261 264 267 272 273 283 301 298 306 309 306 300 290 304
176 123 176 200 218 227 241 246 255 260 268 267 270 268 271 270 275 279 277 282 282 288 297 300 300 298 303
Wind_Speed_850mb
10 10 9 8 7 5 4 8 12 13 12 14 13 17 17 19 18 12 12 13 15 18 21 22 20 18 15
11 13 14 14 13 10 8 9 10 13 15 11 23 21 17 13 16 20 21 19 21 22 22 23 24 22 19
15 15 14 17 19 18 16 14 13 13 15 14 15 20 23 24 22 18 19 21 24 27 28 28 29 28 26
18 21 21 17 19 21 22 23 19 18 16 15 26 26 23 27 27 26 25 25 31 27 29 21 31 29 28
27 24 25 25 23 21 21 21 20 20 18 24 27 32 28 26 27 26 27 24 25 25 20 24 35 39 37
27 29 30 27 26 25 24 26 30 31 29 28 27 25 26 26 28 27 28 30 32 33 35 37 39 43 43
28 28 29 34 31 30 29 29 29 31 33 30 28 26 29 29 29 30 33 31 34 37 39 41 43 42 42
30 32 32 31 34 36 32 35 34 34 32 35 32 33 33 31 31 32 34 35 39 41 44 42 42 43 45
29 32 34 34 34 36 39 34 33 39 39 36 38 37 37 34 34 36 36 40 43 42 46 45 46 47 46
28 30 30 34 35 40 39 38 36 33 38 40 38 38 38 39 37 40 40 42 44 49 49 47 49 51 53
35 34 34 36 34 36 36 35 35 38 37 36 37 39 34 34 38 43 44 45 45 49 52 52 54 56 57
37 36 35 33 34 34 29 31 32 34 36 37 37 39 41 41 41 43 45 46 47 51 57 62 61 57 62
34 20 23 25 18 19 25 33 35 33 31 33 34 32 31 34 37 37 38 43 45 44 52 57 60 56 63
28 25 21 16 17 21 23 27 29 27 29 30 32 30 28 29 31 34 37 41 46 43 46 50 46 51 59
11 25 19 18 21 23 24 19 20 24 25 24 26 29 31 32 32 33 30 26 37 39 39 39 32 21 56
3 11 11 15 19 19 19 18 22 27 22 20 22 25 27 28 28 29 30 35 36 38 38 39 43 48 50
Wind_Direction_850mb
258 260 268 275 285 309 305 254 240 237 243 227 244 264 283 279 281 273 270 260 263 270 276 283 292 296 293
253 253 265 268 266 267 268 264 267 252 258 264 245 255 261 286 268 276 275 266 272 273 276 282 285 283 284
258 271 272 270 267 264 262 259 262 261 263 272 281 261 262 279 288 282 282 286 279 279 283 285 283 284 283
251 259 272 276 262 261 261 258 255 257 254 237 261 276 281 282 280 284 286 287 288 293 297 293 300 292 276
249 254 257 266 272 272 272 254 261 269 260 260 257 265 272 275 275 277 280 286 289 290 279 277 285 295 291
255 249 258 261 265 261 265 257 249 239 248 254 268 273 278 282 283 281 285 285 288 288 284 276 269 273 278
253 259 257 255 261 268 258 258 255 253 257 259 263 262 269 276 279 276 280 280 279 283 277 276 278 280 280
250 259 267 276 260 262 263 248 248 257 253 252 259 262 266 273 276 279 279 279 274 275 281 286 286 283 285
255 254 259 265 257 265 268 271 251 245 254 253 249 253 258 265 260 261 260 273 283 280 279 284 288 291 289
263 258 255 263 266 267 270 272 265 260 253 255 256 263 257 261 266 269 274 277 278 280 291 286 285 286 290
268 269 260 250 250 259 267 266 270 264 262 262 257 257 267 272 271 274 278 276 275 277 279 282 286 285 286
267 268 264 258 254 252 248 265 270 267 265 266 265 260 254 258 264 272 278 280 280 281 283 282 279 277 282
267 267 279 273 262 264 235 246 250 254 256 261 273 275 273 267 272 277 281 284 287 291 296 295 294 294 301
257 227 208 209 222 227 232 247 257 260 261 259 259 270 276 277 280 281 286 293 296 299 301 306 296 301 304
259 215 207 216 226 237 245 246 257 264 260 265 264 261 264 267 272 273 283 301 298 306 309 306 300 290 304
176 123 176 200 218 227 241 246 255 260 268 267 270 268 271 270 275 279 277 282 282 288 297 300 300 298 303